KHZL

Details ICAO KHZL (HZL)
Name HAZLETON MUNI
Region United States
Timezone America/New_York (UTC-4.0)
Plans Departing 18
Arriving 11
Stats Elevation 1,603 ft / 489 m (AMSL)
Location 40.986782° -75.994893°
Runways 1
Magnetic Variation 11.892° W
Sunrise 2018-05-25 09:39:31 UTC / 2018-05-25 05:39:31 Local
Sunset 2018-05-26 00:25:14 UTC / 2018-05-25 20:25:14 Local
Advertisement - Login to hide

Runways

ID Width Length Bearing (true) Bearing (mag) Surface Threshold Offset Overrun Length
10 100 ft / 30 m 4,886 ft / 1,489 m 94.12° 106.01° Asphalt 0 ft / 0 m 0 ft / 0 m
28 100 ft / 30 m 4,886 ft / 1,489 m 274.13° 286.02° Asphalt 0 ft / 0 m 0 ft / 0 m

Approach Navaids

Runway Type Ident Frequency Range Bearing (true) Bearing (mag) Slope Elevation
28 Localiser IHZL 110.50 MHz 18 nm / 33 km 274.13° 286.02° - 1,603 ft / 489 m (AMSL)

Map

Weather


0- 5 10 15 20 25 30 35+ Temperature / ° C

Clouds and Precipitation
Forecast for 2018-05-25 12:00 UTC. Updated 6 hours ago

Ground ~20,000 ft ~40,000 ft Winds

METAR

KHZL 251635Z AUTO 25004KT 10SM CLR 28/11 A3004 RMK AO2

TAF

Not found

Frequencies

Recorded 119.97 MHz AWOS 3
Clearance 121.70 MHz CLNC DEL
Unicom 123.00 MHz CTAF/UNICOM
Approach 126.30 MHz WILKES BARRE APP/DEP
Warning: Do not use this data for real-world aviation or navigation. No guarantee of current accuracy is given.